Дата Пункты Температура Давл., мм. Влажн., % Ветер Погодные явления
Воздуха Воды Направл. Скорость
16.11.19 05:00 Одесса 14.0 13.0 766 89 Пд-С 3 17 ГОДИН
16.11.19 02:00 Одесса 14.0 13.0 765 92 Пд-С 3 14 ГОДИН
16.11.19 11:00 Одесса 14.0 13.0 765 94 Пд-С 3 11 ГОДИН
16.11.19 08:00 Одесса 13.0 13.0 765 95 Пд-С 4 08 ГОДИН
16.11.19 05:00 Одесса 13.0 13.0 764 94 С 2 05 ГОДИН
16.11.19 02:00 Одесса 13.0 13.0 764 93 Пн-С 3 02 ГОДИНИ
15.11.19 11:00 Одесса 13.0 13.0 763 91 Пд-С 3 23 ГОДИНИ
15.11.19 08:00 Одесса 13.0 13.0 763 92 Пн 0 20 ГОДИН
15.11.19 05:00 Одесса 13.0 13.0 762 89 С 3 17 ГОДИН
15.11.19 02:00 Одесса 12.0 13.0 761 93 Пн 2 14 ГОДИН
15.11.19 11:00 Одесса 12.0 13.0 761 92 С 3 11 ГОДИН
15.11.19 08:00 Одесса 10.0 13.0 760 93 Пн-С 5 08 ГОДИН
15.11.19 05:00 Одесса 10.0 14.0 759 93 Пн-С 4 05 ГОДИН
15.11.19 02:00 Одесса 9.0 14.0 759 91 Пн-С 5 02 ГОДИНИ
14.11.19 11:00 Одесса 11.0 14.0 759 86 С 5 23 ГОДИНИ
14.11.19 08:00 Одесса 11.0 14.0 759 84 С 7 20 ГОДИН
14.11.19 05:00 Одесса 12.0 14.0 759 81 С 7 17 ГОДИН
14.11.19 02:00 Одесса 12.0 14.0 759 81 С 6 14 ГОДИН
14.11.19 11:00 Одесса 11.0 13.0 760 83 С 5 11 ГОДИН
14.11.19 08:00 Одесса 11.0 13.0 760 80 С 9 08 ГОДИН
Количество строк
1 2 3 4 5 6 7 8 9 10
Page 2 of 553